Location: *
(55.5817°S, 142.4781°W)
Time: 07:17:08
(UTC+00:00)

Cosmos 2084 - Pass Details

Date: 29 April 2025
Orbit: 511 x 601 km, 62.8° (Epoch: 23 May)

Event Time Altitude Azimuth Distance (km) Brightness Sun altitude
Exits shadow 14:01:25 41° 10° (N) 891 4.3 -24.1°
Drops below altitude 10° 14:04:32 10° 33° (NNE) 1,962 6.4 -23.7°
Sets 14:06:49 0° 37° (NE) 2,863 7.4 -23.4°
